Location: *
(38.9800°N, 16.0500°E)
Time: 07:58:03
(UTC+00:00)

NOSS 3-2 (A) - Pass Details

Date: 07 April 2020
Orbit: 801 x 1406 km, 63.4° (Epoch: 24 May)

Event Time Altitude Azimuth Distance (km) Brightness Sun altitude
Exits shadow 01:39:30 72° 43° (NE) 937 3.4 -30.8°
Drops below altitude 10° 01:45:09 10° 34° (NE) 2,730 6.7 -29.9°
Sets 01:47:54 0° 34° (NE) 3,773 7.7 -29.5°
